[[{"header":{"parameterUnit":"m.s-1","parameterCategory":1,"la1":30.2991,"la2":30.254,"lo1":-89.0895,"lo2":-89.0444,"dy":0.0017,"dx":0.0017,"nx":28,"ny":28,"refTime":"2024-12-09T09:00:00:Z","depth":0,"parameterNumber":2,"parameterNumberName":"U-component_of_WINDS"},"data":[0,0,0,0,0,0,0,0,0,0,0,0,0,0,0,0,0,0,0,0,0,0,0,0,0,0,0,0,0,0,0,0,0,0,0,0,0,0,0,0,0,0,0,0,0,0,0,0,0,0,0,0,0,0,0,0,0,0,0.4686,0.4687,0,0.472,0.472,0.4721,0.4705,0.4705,0.4704,0.4703,0.474,0.4742,0.4743,0,0,0,0,0,0,0,0,0,0,0,0,0,0.4612,0.4613,0.4686,0.4687,0.4687,0.472,0.472,0.4721,0.4706,0.4704,0.4703,0.4702,0.4739,0.4741,0.4744,0,0,0,0,0,0,0,0,0,0,0,0,0,0.4645,0.4614,0.4686,0.4683,0.4683,0.472,0.472,0.4721,0.4706,0.4704,0.4703,0.4702,0.4739,0.4741,0.4744,0.4786,0,0,0.4752,0.4753,0,0,0,0,0,0,0,0,0.4643,0.4648,0.4683,0.4684,0.4684,0.4707,0.4708,0.4743,0.4706,0.4697,0.4703,0.4701,0.473,0.4733,0.4743,0.4787,0.4789,0.4752,0.4754,0.4755,0.4756,0,0,0,0,0,0,0,0.4641,0.4646,0.47,0.4684,0.4684,0.4681,0.4685,0.4714,0.4721,0.4698,0.4697,0.4701,0.473,0.474,0.4743,0.4789,0.4752,0.4755,0.4756,0.4757,0.4872,0.4874,0,0,0,0,0,0,0.4638,0.4644,0.4698,0.4701,0.466,0.4684,0.4687,0.4701,0.472,0.4722,0.4702,0.47,0.4736,0.474,0.4745,0.4796,0.4755,0.4757,0.4759,0.4871,0.4873,0.4874,0,0,0,0,0,0,0.4636,0.4643,0.4697,0.4672,0.4679,0.4686,0.4702,0.4702,0.4712,0.4723,0.4725,0.4711,0.4735,0.4741,0.4776,0.4797,0.4759,0.4761,0.4869,0.4871,0.4873,0.4899,0,0,0,0,0,0,0.4634,0.4643,0.4658,0.4672,0.468,0.4727,0.4703,0.4704,0.4717,0.4714,0.4732,0.4734,0.4735,0.4772,0.4778,0.48,0.4763,0.4867,0.487,0.4873,0.4896,0.4902,0.4907,0,0,0,0,0,0.4632,0.4664,0.4658,0.4665,0.4699,0.4728,0.4732,0.4732,0.4718,0.4734,0.4742,0.4733,0.4794,0.4776,0.4783,0.4806,0.4866,0.4869,0.4872,0.4894,0.4901,0.4906,0,0,0,0,0,0,0.4651,0.4665,0.466,0.4697,0.4711,0.4725,0.4745,0.4739,0.4758,0.4756,0.4756,0.476,0.4796,0.4804,0.4784,0.4848,0.4828,0.4833,0.4842,0.4848,0.4853,0.4851,0.4765,0,0,0,0,0,0.466,0.4681,0.4693,0.4725,0.4732,0.4738,0.475,0.4749,0.4764,0.477,0.478,0.4796,0.4819,0.4834,0.4855,0.4897,0.4902,0.4917,0.4922,0.4926,0.493,0.4955,0.4963,0.4885,0.4885,0.4885,0,0,0.4678,0.4688,0.4702,0.4729,0.474,0.4763,0.4743,0.4768,0.4786,0.4774,0.4808,0.4816,0.4834,0.4873,0.4891,0.4881,0.4953,0.493,0.4933,0.4936,0.4959,0.4967,0.4973,0.4887,0.4887,0.4886,0,0,0.4723,0.4732,0.4761,0.4772,0.4789,0.4793,0.48,0.4815,0.482,0.4853,0.4846,0.4867,0.4906,0.4919,0.4931,0.4983,0.4977,0.499,0.5017,0.5042,0.5048,0.5053,0.5073,0.5081,0.4995,0.4995,0.4995,0,0.4744,0.4778,0.4776,0.4803,0.4816,0.4806,0.4836,0.4847,0.487,0.488,0.4868,0.4918,0.4929,0.4972,0.4985,0.4994,0.5003,0.4989,0.5047,0.5052,0.5057,0.5077,0.5084,0.4996,0.4996,0.4996,0.4996,0,0.4803,0.4827,0.4848,0.4871,0.4886,0.4914,0.4918,0.4934,0.4932,0.4937,0.4973,0.4986,0.501,0.502,0.5018,0.5064,0.5057,0.5046,0.5026,0.5066,0.5085,0.5092,0.4999,0.4998,0.4998,0.4997,0,0,0.4861,0.4884,0.4892,0.4903,0.4921,0.494,0.4968,0.4992,0.5007,0.5023,0.5048,0.5081,0.5072,0.5085,0.5085,0.5106,0.5149,0.5093,0.5093,0.5104,0.5202,0.5211,0.5219,0.5144,0.5145,0.5146,0.5201,0,0.4909,0.4958,0.4958,0.5004,0.5027,0.5019,0.5044,0.5059,0.5065,0.5086,0.5093,0.5117,0.5102,0.511,0.513,0.5139,0.5168,0.5135,0.5169,0.517,0.5166,0.5229,0.5238,0.5289,0.5208,0.5209,0.521,0,0.4971,0.499,0.5038,0.5055,0.5065,0.5087,0.511,0.513,0.5147,0.515,0.5166,0.5163,0.5193,0.5171,0.5214,0.5191,0.5205,0.5212,0.5214,0.5218,0.5193,0.5236,0.5305,0.5313,0.5221,0.522,0.5219,0,0.5011,0.5048,0.5082,0.5092,0.5112,0.5128,0.5137,0.5153,0.5168,0.5188,0.5198,0.5221,0.5235,0.5254,0.5257,0.5241,0.5301,0.5279,0.5306,0.5306,0.532,0.5319,0.5393,0.5327,0.5326,0.5326,0.5326,0,0.5065,0.5095,0.5101,0.5122,0.5156,0.5156,0.519,0.5198,0.5213,0.5237,0.5231,0.5253,0.5256,0.528,0.5283,0.5319,0.5325,0.5329,0.533,0.533,0.533,0.534,0.5338,0.5328,0.5328,0.5327,0.5327,0,0.5115,0.5119,0.5156,0.5173,0.5178,0.5202,0.5217,0.5238,0.5243,0.5273,0.5281,0.529,0.5317,0.5323,0.5355,0.5358,0.5401,0.5398,0.5396,0.5396,0.5423,0.5421,0.5507,0.552,0.5443,0.5444,0.5445,0,0.5149,0.5172,0.5192,0.5207,0.5217,0.5241,0.5257,0.5259,0.5275,0.5298,0.5316,0.5343,0.5365,0.541,0.542,0.5446,0.5444,0.5472,0.5447,0.5448,0.5446,0.5445,0.5448,0.5477,0.5478,0.5479,0.5479,0,0.5211,0.5212,0.5234,0.5258,0.5277,0.5296,0.5313,0.5326,0.5331,0.535,0.5378,0.5395,0.5429,0.5456,0.5482,0.5493,0.5488,0.5487,0.5495,0.5496,0.5495,0.5498,0.541,0.5485,0.5485,0.5484,0.5484,0.5484,0.5255,0.5276,0.5293,0.5319,0.5333,0.535,0.5371,0.538,0.5403,0.543,0.543,0.5462,0.548,0.5514,0.5526,0.5552,0.5543,0.5554,0.5557,0.556,0.5564,0.549,0.5556,0.5556,0.5556,0.5556,0.5556,0,0.5317,0.5329,0.5352,0.5378,0.5398,0.5391,0.5411,0.5429,0.5456,0.5474,0.5496,0.5529,0.5556,0.5569,0.5596,0.5614,0.5613,0.5621,0.5621,0.5624,0.5569,0.556,0.5622,0.5622,0.5622,0.5622,0.5622,0.5622,0.5352,0.5388,0.5392,0.5436,0.5447,0.5477,0.5489,0.5506,0.552,0.5558,0.558,0.5588,0.5604,0.5633,0.5658,0.5661,0.5672,0.5682,0.5685,0.5634,0.5627,0.5621,0.5613,0.5684,0.5685,0.5737,0.5738,0.5738]},{"header":{"parameterUnit":"m.s-1","parameterCategory":1,"la1":30.2991,"la2":30.254,"lo1":-89.0895,"lo2":-89.0444,"dy":0.0017,"dx":0.0017,"nx":28,"ny":28,"refTime":"2024-12-09T09:00:00:Z","depth":0,"parameterNumber":3,"parameterNumberName":"V-component_of_WINDS"},"data":[0,0,0,0,0,0,0,0,0,0,0,0,0,0,0,0,0,0,0,0,0,0,0,0,0,0,0,0,0,0,0,0,0,0,0,0,0,0,0,0,0,0,0,0,0,0,0,0,0,0,0,0,0,0,0,0,0,0,3.6413,3.6414,0,3.6542,3.6544,3.6545,3.6573,3.6572,3.6571,3.657,3.6704,3.6708,3.6713,0,0,0,0,0,0,0,0,0,0,0,0,0,3.6193,3.6196,3.6413,3.6415,3.6416,3.6542,3.6544,3.6546,3.6573,3.6572,3.657,3.6569,3.6703,3.6708,3.6713,0,0,0,0,0,0,0,0,0,0,0,0,0,3.6302,3.6198,3.6413,3.6445,3.6449,3.6542,3.6544,3.6546,3.6573,3.6572,3.657,3.6569,3.6701,3.6707,3.6714,3.6784,0,0,3.6734,3.6737,0,0,0,0,0,0,0,0,3.6296,3.631,3.6439,3.6443,3.6448,3.654,3.6515,3.6626,3.6573,3.6526,3.657,3.6568,3.6651,3.6661,3.6689,3.6791,3.6796,3.6735,3.6739,3.6742,3.6744,0,0,0,0,0,0,0,3.6288,3.6304,3.6464,3.644,3.6446,3.6454,3.6468,3.6537,3.6595,3.653,3.6532,3.6547,3.6653,3.6682,3.6692,3.6798,3.6735,3.6741,3.6745,3.6748,3.6967,3.6969,0,0,0,0,0,0,3.6274,3.6298,3.646,3.6468,3.6366,3.6459,3.6475,3.6512,3.6594,3.6605,3.6548,3.6548,3.6672,3.6684,3.6697,3.6787,3.6742,3.6748,3.6752,3.6966,3.6968,3.697,0,0,0,0,0,0,3.6269,3.6289,3.6455,3.6384,3.6405,3.6464,3.6506,3.6515,3.6545,3.6608,3.6619,3.6567,3.6671,3.6688,3.6763,3.6792,3.6751,3.6757,3.6964,3.6966,3.6969,3.6967,0,0,0,0,0,0,3.6263,3.6287,3.6313,3.6384,3.6409,3.6518,3.6508,3.6519,3.6556,3.6557,3.6629,3.664,3.6671,3.6753,3.677,3.6801,3.6763,3.6961,3.6965,3.6968,3.6964,3.6969,3.6973,0,0,0,0,0,3.6255,3.6307,3.6314,3.6334,3.6443,3.6519,3.6534,3.6569,3.6558,3.6586,3.6627,3.6637,3.6786,3.676,3.678,3.6813,3.696,3.6964,3.6968,3.6962,3.6968,3.6973,0,0,0,0,0,0,3.6238,3.6317,3.6326,3.6402,3.6454,3.6524,3.656,3.6573,3.6629,3.6628,3.6669,3.6685,3.6759,3.6793,3.6763,3.6887,3.6872,3.6881,3.6862,3.6868,3.6872,3.6863,3.6768,0,0,0,0,0,3.6243,3.6297,3.6363,3.6425,3.645,3.65,3.6535,3.6557,3.6613,3.6635,3.6681,3.6735,3.6795,3.6833,3.689,3.6969,3.6987,3.7002,3.7006,3.7009,3.7016,3.7063,3.7071,3.6983,3.6983,3.6983,0,0,3.6254,3.6304,3.6336,3.6423,3.6465,3.6522,3.6519,3.6578,3.6621,3.6644,3.6719,3.6755,3.6818,3.6896,3.6932,3.6927,3.7044,3.7014,3.7016,3.7022,3.7068,3.7076,3.7084,3.6986,3.6986,3.6985,0,0,3.6304,3.6346,3.6403,3.6446,3.6511,3.6544,3.6558,3.6626,3.6651,3.6727,3.6746,3.6798,3.6898,3.6943,3.6979,3.7048,3.7061,3.7066,3.7088,3.7133,3.714,3.7147,3.7174,3.7183,3.7072,3.7072,3.7072,0,3.631,3.6396,3.6431,3.649,3.6529,3.6552,3.6611,3.6651,3.6731,3.6758,3.675,3.6879,3.6923,3.7013,3.703,3.7057,3.7076,3.7058,3.7136,3.7143,3.715,3.7176,3.7186,3.7072,3.7072,3.7072,3.7072,0,3.6401,3.646,3.6498,3.6576,3.6619,3.6677,3.6723,3.6762,3.6781,3.6815,3.6893,3.6947,3.7017,3.704,3.7058,3.7133,3.7128,3.7128,3.7115,3.7158,3.7184,3.7194,3.7073,3.7073,3.7073,3.7073,0,0,3.6444,3.6541,3.6555,3.6591,3.6665,3.6712,3.6773,3.6841,3.6875,3.693,3.6983,3.7068,3.7069,3.711,3.7134,3.7174,3.7228,3.7169,3.7171,3.718,3.7317,3.7318,3.7329,3.7236,3.7238,3.724,3.7312,0,3.6505,3.6613,3.6648,3.6739,3.6795,3.6819,3.6872,3.6924,3.6958,3.7012,3.705,3.711,3.7105,3.7131,3.717,3.7213,3.7256,3.7208,3.7288,3.7291,3.7274,3.7342,3.7343,3.7409,3.7322,3.7324,3.7325,0,3.659,3.6647,3.6744,3.6813,3.6838,3.6885,3.6952,3.7002,3.7062,3.7084,3.7131,3.7152,3.7218,3.72,3.7292,3.7259,3.7293,3.7319,3.7323,3.7333,3.7312,3.7357,3.7431,3.7442,3.7341,3.734,3.7338,0,3.6615,3.6716,3.6787,3.6817,3.6899,3.6932,3.6967,3.7026,3.7066,3.7124,3.7151,3.7216,3.7252,3.7303,3.7342,3.7325,3.7433,3.7417,3.7455,3.7454,3.7478,3.7476,3.7561,3.7496,3.7496,3.7496,3.7496,0,3.668,3.6739,3.68,3.6844,3.6912,3.6951,3.7017,3.7054,3.7106,3.7159,3.7183,3.7232,3.728,3.7336,3.7367,3.7441,3.7456,3.7478,3.7486,3.7477,3.7475,3.7502,3.7499,3.7499,3.7498,3.7498,3.7497,0,3.672,3.6763,3.6843,3.6914,3.6933,3.698,3.7041,3.7086,3.7121,3.7188,3.7206,3.7262,3.733,3.7373,3.7459,3.748,3.7562,3.7567,3.7542,3.7546,3.7583,3.7579,3.769,3.7707,3.7628,3.7629,3.763,0,3.676,3.6806,3.6882,3.6919,3.6955,3.7014,3.7055,3.7096,3.7138,3.7211,3.7247,3.7316,3.7374,3.7482,3.7531,3.7597,3.7606,3.764,3.7616,3.7607,3.761,3.7607,3.7613,3.7645,3.7645,3.7646,3.7646,0,3.6827,3.6847,3.6904,3.697,3.7019,3.7072,3.7126,3.7156,3.7206,3.7252,3.7322,3.7366,3.7455,3.7524,3.7596,3.7633,3.7649,3.7653,3.7666,3.7659,3.7643,3.7655,3.7555,3.7651,3.765,3.765,3.765,3.765,3.687,3.6913,3.6974,3.7039,3.7083,3.7134,3.718,3.7221,3.728,3.7355,3.7375,3.7449,3.751,3.7607,3.7647,3.7706,3.7702,3.7719,3.7724,3.7729,3.7731,3.7632,3.7718,3.7718,3.7718,3.7718,3.7718,0,3.6941,3.6982,3.704,3.7115,3.7167,3.7176,3.7236,3.7279,3.7343,3.7398,3.7455,3.7536,3.7604,3.7658,3.7728,3.7765,3.7775,3.7783,3.7782,3.7791,3.7729,3.7712,3.7774,3.7774,3.7774,3.7774,3.7774,3.7774,3.6984,3.7058,3.7085,3.7182,3.7223,3.7295,3.7329,3.7376,3.7421,3.751,3.7567,3.7601,3.7657,3.7732,3.7795,3.781,3.7836,3.7843,3.7859,3.7801,3.7795,3.7789,3.7773,3.7847,3.7847,3.7916,3.7917,3.7917]}]]